| time (UTC) | temp C | wind direction | speed KPH | gust KPH | rain 1hr cm | rain 24hr cm | rain mn cm | humidity % | barometer mb |
| 20260502180539 | 21 | 205 | 6.4 | 16.1 | 0.00 | 0.00 | 0.00 | 26 | 1020.2 |
| 20260502180119 | 21 | 190 | 4.8 | 11.3 | 0.00 | 0.00 | 0.00 | 25 | 1020.2 |
| 20260502164039 | 18 | 200 | 3.2 | 11.3 | 0.00 | 0.00 | 0.00 | 33 | 1020.3 |
| 20260502163539 | 17 | 211 | 3.2 | 11.3 | 0.00 | 0.00 | 0.00 | 33 | 1020.3 |
| 20260502163052 | 17 | 240 | 4.8 | 11.3 | 0.00 | 0.00 | 0.00 | 35 | 1020.4 |
| 20260502162539 | 17 | 151 | 1.6 | 8.0 | 0.00 | 0.00 | 0.00 | 35 | 1020.4 |
| 20260502162039 | 17 | 154 | 3.2 | 8.0 | 0.00 | 0.00 | 0.00 | 35 | 1020.4 |
| 20260502161548 | 16 | 197 | 3.2 | 6.4 | 0.00 | 0.00 | 0.00 | 37 | 1020.4 |
| 20260502161039 | 16 | 253 | 0.0 | 6.4 | 0.00 | 0.00 | 0.00 | 36 | 1020.3 |
| 20260502160541 | 16 | 254 | 3.2 | 6.4 | 0.00 | 0.00 | 0.00 | 37 | 1020.3 |
| 20260502152044 | 14 | 219 | 0.0 | 4.8 | 0.00 | 0.00 | 0.00 | 40 | 1020.4 |
| 20260502151600 | 13 | 223 | 1.6 | 4.8 | 0.00 | 0.00 | 0.00 | 42 | 1020.5 |
| 20260502151040 | 13 | 0 | 0.0 | 4.8 | 0.00 | 0.00 | 0.00 | 43 | 1020.4 |
| 20260502150539 | 13 | 233 | 1.6 | 4.8 | 0.00 | 0.00 | 0.00 | 44 | 1020.4 |
| 20260502130541 | 2 | 360 | 1.6 | 3.2 | 0.00 | 0.00 | 0.00 | 70 | 1020.1 |
| 20260502123540 | 3 | 55 | 1.6 | 4.8 | 0.00 | 0.00 | 0.00 | 69 | 1020.0 |
| 20260502123053 | 3 | 55 | 0.0 | 3.2 | 0.00 | 0.00 | 0.00 | 69 | 1020.0 |
| 20260502122540 | 3 | 0 | 0.0 | 0.0 | 0.00 | 0.00 | 0.00 | 69 | 1020.0 |
| 20260502122039 | 3 | 0 | 0.0 | 1.6 | 0.00 | 0.00 | 0.00 | 69 | 1020.0 |
| 20260502121603 | 3 | 0 | 0.0 | 3.2 | 0.00 | 0.00 | 0.00 | 69 | 1019.9 |
| 20260502121042 | 3 | 0 | 0.0 | 3.2 | 0.00 | 0.00 | 0.00 | 69 | 1019.9 |
| 20260502120540 | 3 | 55 | 1.6 | 4.8 | 0.00 | 0.00 | 0.00 | 69 | 1019.9 |
| 20260502115542 | 3 | 55 | 1.6 | 6.4 | 0.00 | 0.00 | 0.00 | 69 | 1019.9 |
| 20260502115040 | 3 | 55 | 1.6 | 9.7 | 0.00 | 0.00 | 0.00 | 68 | 1019.9 |
| 20260502114550 | 3 | 55 | 3.2 | 9.7 | 0.00 | 0.00 | 0.00 | 68 | 1019.9 |
| 20260502114040 | 3 | 50 | 6.4 | 9.7 | 0.00 | 0.00 | 0.00 | 68 | 1019.8 |
| 20260502113540 | 3 | 61 | 3.2 | 6.4 | 0.00 | 0.00 | 0.00 | 68 | 1019.9 |
| 20260502113049 | 3 | 90 | 3.2 | 8.0 | 0.00 | 0.00 | 0.00 | 67 | 1020.1 |
| 20260502112539 | 3 | 137 | 3.2 | 8.0 | 0.00 | 0.00 | 0.00 | 67 | 1019.9 |
| 20260502112039 | 3 | 155 | 3.2 | 8.0 | 0.00 | 0.00 | 0.00 | 67 | 1020.1 |
| 20260502111558 | 4 | 166 | 3.2 | 8.0 | 0.00 | 0.00 | 0.00 | 67 | 1020.0 |
| 20260502111041 | 4 | 0 | 1.6 | 4.8 | 0.00 | 0.00 | 0.00 | 67 | 1020.0 |
| 20260502110539 | 4 | 50 | 1.6 | 4.8 | 0.00 | 0.00 | 0.00 | 67 | 1019.9 |
| 20260502110053 | 4 | 50 | 1.6 | 4.8 | 0.00 | 0.00 | 0.00 | 67 | 1019.9 |
| 20260502105541 | 5 | 50 | 0.0 | 4.8 | 0.00 | 0.00 | 0.00 | 67 | 1019.9 |
| 20260502105040 | 5 | 355 | 1.6 | 4.8 | 0.00 | 0.00 | 0.00 | 66 | 1020.0 |
| 20260502104548 | 5 | 355 | 1.6 | 4.8 | 0.00 | 0.00 | 0.00 | 67 | 1020.0 |
| 20260502104041 | 5 | 355 | 1.6 | 4.8 | 0.00 | 0.00 | 0.00 | 67 | 1019.9 |
| 20260502103541 | 5 | 355 | 1.6 | 6.4 | 0.00 | 0.00 | 0.00 | 67 | 1020.0 |
| 20260502103053 | 5 | 0 | 1.6 | 6.4 | 0.00 | 0.00 | 0.00 | 67 | 1020.0 |
| 20260502102541 | 5 | 355 | 3.2 | 6.4 | 0.00 | 0.00 | 0.00 | 67 | 1020.0 |
| 20260502102040 | 5 | 360 | 3.2 | 9.7 | 0.00 | 0.00 | 0.00 | 67 | 1020.0 |
| 20260502101605 | 5 | 360 | 3.2 | 9.7 | 0.00 | 0.00 | 0.00 | 68 | 1019.9 |
| 20260502101039 | 5 | 360 | 4.8 | 9.7 | 0.00 | 0.00 | 0.00 | 68 | 1019.8 |
| 20260502100539 | 5 | 360 | 1.6 | 9.7 | 0.00 | 0.00 | 0.00 | 68 | 1019.8 |
| 20260502100108 | 5 | 360 | 4.8 | 9.7 | 0.00 | 0.00 | 0.00 | 68 | 1019.9 |
| 20260502091040 | 4 | 360 | 6.4 | 8.0 | 0.00 | 0.00 | 0.00 | 67 | 1019.9 |
| 20260502090539 | 4 | 360 | 4.8 | 8.0 | 0.00 | 0.00 | 0.00 | 66 | 1019.9 |
| 20260502080104 | 5 | 360 | 1.6 | 9.7 | 0.00 | 0.00 | 0.00 | 64 | 1019.8 |
| 20260502071039 | 6 | 0 | 1.6 | 6.4 | 0.00 | 0.00 | 0.00 | 64 | 1019.5 |
| 20260502070539 | 6 | 38 | 1.6 | 6.4 | 0.00 | 0.00 | 0.00 | 64 | 1019.4 |
| 20260502070046 | 6 | 38 | 3.2 | 6.4 | 0.00 | 0.00 | 0.00 | 64 | 1019.5 |
| 20260502065540 | 6 | 42 | 4.8 | 6.4 | 0.00 | 0.00 | 0.00 | 63 | 1019.6 |
| 20260502065039 | 6 | 59 | 4.8 | 8.0 | 0.00 | 0.00 | 0.00 | 63 | 1019.6 |
| 20260502064551 | 6 | 67 | 4.8 | 8.0 | 0.00 | 0.00 | 0.00 | 63 | 1019.6 |
| 20260502064039 | 6 | 65 | 4.8 | 8.0 | 0.00 | 0.00 | 0.00 | 62 | 1019.6 |
| 20260502063539 | 6 | 64 | 3.2 | 6.4 | 0.00 | 0.00 | 0.00 | 62 | 1019.6 |
| 20260502063047 | 6 | 72 | 3.2 | 6.4 | 0.00 | 0.00 | 0.00 | 62 | 1019.6 |
| 20260502062539 | 6 | 89 | 3.2 | 6.4 | 0.00 | 0.00 | 0.00 | 61 | 1019.7 |
| 20260502062038 | 6 | 136 | 1.6 | 4.8 | 0.00 | 0.00 | 0.00 | 61 | 1019.7 |
| 20260502061548 | 6 | 136 | 3.2 | 6.4 | 0.00 | 0.00 | 0.00 | 61 | 1019.7 |
| 20260502061038 | 7 | 138 | 3.2 | 6.4 | 0.00 | 0.00 | 0.00 | 60 | 1019.6 |
| 20260502060539 | 7 | 147 | 1.6 | 4.8 | 0.00 | 0.00 | 0.00 | 60 | 1019.7 |
| 20260502060108 | 7 | 63 | 0.0 | 4.8 | 0.00 | 0.00 | 0.00 | 60 | 1019.6 |
| 20260502055540 | 7 | 360 | 0.0 | 4.8 | 0.00 | 0.00 | 0.00 | 60 | 1019.6 |
| 20260502055040 | 7 | 0 | 0.0 | 4.8 | 0.00 | 0.00 | 0.00 | 60 | 1019.6 |
| 20260502054544 | 7 | 63 | 3.2 | 6.4 | 0.00 | 0.00 | 0.00 | 59 | 1019.4 |
| 20260502054039 | 7 | 63 | 3.2 | 6.4 | 0.00 | 0.00 | 0.00 | 59 | 1019.3 |
| 20260502053540 | 7 | 66 | 3.2 | 6.4 | 0.00 | 0.00 | 0.00 | 59 | 1019.5 |
| 20260502053059 | 8 | 66 | 3.2 | 4.8 | 0.00 | 0.00 | 0.00 | 58 | 1019.4 |
| 20260502052539 | 8 | 67 | 1.6 | 4.8 | 0.00 | 0.00 | 0.00 | 58 | 1019.5 |
| 20260502052039 | 8 | 360 | 1.6 | 4.8 | 0.00 | 0.00 | 0.00 | 58 | 1019.4 |
| 20260502051558 | 8 | 360 | 3.2 | 4.8 | 0.00 | 0.00 | 0.00 | 57 | 1019.4 |
| 20260502051040 | 8 | 67 | 3.2 | 8.0 | 0.00 | 0.00 | 0.00 | 57 | 1019.4 |
| 20260502050542 | 8 | 66 | 3.2 | 8.0 | 0.00 | 0.00 | 0.00 | 56 | 1019.4 |
| 20260502050057 | 9 | 69 | 3.2 | 6.4 | 0.00 | 0.00 | 0.00 | 56 | 1019.4 |
| 20260502045541 | 9 | 66 | 3.2 | 6.4 | 0.00 | 0.00 | 0.00 | 56 | 1019.4 |
| 20260502045040 | 9 | 78 | 3.2 | 6.4 | 0.00 | 0.00 | 0.00 | 55 | 1019.3 |
| 20260502044549 | 9 | 78 | 3.2 | 4.8 | 0.00 | 0.00 | 0.00 | 55 | 1019.3 |
| 20260502044039 | 10 | 78 | 3.2 | 4.8 | 0.00 | 0.00 | 0.00 | 55 | 1019.3 |
| 20260502043539 | 10 | 78 | 0.0 | 4.8 | 0.00 | 0.00 | 0.00 | 54 | 1019.3 |
| 20260502043110 | 10 | 78 | 0.0 | 9.7 | 0.00 | 0.00 | 0.00 | 54 | 1019.3 |
| 20260502042542 | 10 | 78 | 1.6 | 9.7 | 0.00 | 0.00 | 0.00 | 54 | 1019.3 |
| 20260502042038 | 10 | 78 | 3.2 | 9.7 | 0.00 | 0.00 | 0.00 | 54 | 1019.2 |
| 20260502041552 | 10 | 93 | 4.8 | 9.7 | 0.00 | 0.00 | 0.00 | 54 | 1019.3 |
| 20260502041039 | 10 | 89 | 3.2 | 6.4 | 0.00 | 0.00 | 0.00 | 55 | 1019.1 |
| 20260502040539 | 10 | 92 | 3.2 | 6.4 | 0.00 | 0.00 | 0.00 | 55 | 1019.1 |
| 20260502040053 | 10 | 93 | 1.6 | 6.4 | 0.00 | 0.00 | 0.00 | 55 | 1019.0 |
| 20260502035537 | 10 | 92 | 3.2 | 6.4 | 0.00 | 0.00 | 0.00 | 54 | 1019.0 |
| 20260502035039 | 10 | 78 | 3.2 | 6.4 | 0.00 | 0.00 | 0.00 | 54 | 1018.9 |
| 20260502034549 | 11 | 74 | 3.2 | 6.4 | 0.00 | 0.00 | 0.00 | 53 | 1018.9 |
| 20260502034037 | 11 | 60 | 3.2 | 4.8 | 0.00 | 0.00 | 0.00 | 52 | 1018.8 |
| 20260502033536 | 11 | 360 | 1.6 | 3.2 | 0.00 | 0.00 | 0.00 | 52 | 1018.7 |
| 20260502033056 | 12 | 328 | 1.6 | 8.0 | 0.00 | 0.00 | 0.00 | 51 | 1018.6 |
| 20260502032539 | 12 | 360 | 1.6 | 8.0 | 0.00 | 0.00 | 0.00 | 51 | 1018.6 |
| 20260502032039 | 12 | 360 | 3.2 | 8.0 | 0.00 | 0.00 | 0.00 | 50 | 1018.5 |
| 20260502031552 | 12 | 360 | 3.2 | 6.4 | 0.00 | 0.00 | 0.00 | 49 | 1018.4 |
| 20260502031039 | 13 | 360 | 1.6 | 4.8 | 0.00 | 0.00 | 0.00 | 48 | 1018.4 |
| 20260502030540 | 13 | 360 | 1.6 | 4.8 | 0.00 | 0.00 | 0.00 | 47 | 1018.3 |
| 20260502030051 | 13 | 360 | 1.6 | 4.8 | 0.00 | 0.00 | 0.00 | 46 | 1018.3 |
| 20260502025541 | 14 | 360 | 0.0 | 3.2 | 0.00 | 0.00 | 0.00 | 45 | 1018.2 |
| 20260502025036 | 15 | 360 | 0.0 | 6.4 | 0.00 | 0.00 | 0.00 | 45 | 1018.2 |
| 20260502024545 | 15 | 360 | 0.0 | 6.4 | 0.00 | 0.00 | 0.00 | 44 | 1018.2 |
| 20260502024039 | 15 | 360 | 3.2 | 9.7 | 0.00 | 0.00 | 0.00 | 43 | 1018.1 |
| 20260502023539 | 15 | 360 | 3.2 | 9.7 | 0.00 | 0.00 | 0.00 | 42 | 1018.1 |
| 20260502023050 | 15 | 360 | 4.8 | 9.7 | 0.00 | 0.00 | 0.00 | 41 | 1018.1 |
| 20260502022541 | 15 | 360 | 4.8 | 12.9 | 0.00 | 0.00 | 0.00 | 41 | 1018.1 |
| 20260502022039 | 15 | 360 | 4.8 | 12.9 | 0.00 | 0.00 | 0.00 | 40 | 1018.1 |
| 20260502021553 | 15 | 360 | 6.4 | 12.9 | 0.00 | 0.00 | 0.00 | 39 | 1018.0 |
| 20260502021039 | 16 | 360 | 8.0 | 16.1 | 0.00 | 0.00 | 0.00 | 39 | 1017.9 |
| 20260502020539 | 16 | 265 | 8.0 | 16.1 | 0.00 | 0.00 | 0.00 | 39 | 1017.9 |
| 20260502020051 | 16 | 360 | 9.7 | 16.1 | 0.00 | 0.00 | 0.00 | 40 | 1017.9 |
| 20260502015539 | 16 | 296 | 9.7 | 19.3 | 0.00 | 0.00 | 0.00 | 40 | 1017.8 |
| 20260502015039 | 16 | 360 | 8.0 | 19.3 | 0.00 | 0.00 | 0.00 | 40 | 1017.8 |
| 20260502014545 | 16 | 360 | 11.3 | 19.3 | 0.00 | 0.00 | 0.00 | 39 | 1017.8 |
| 20260502014039 | 17 | 360 | 12.9 | 22.5 | 0.00 | 0.00 | 0.00 | 39 | 1017.7 |
| 20260502013540 | 17 | 360 | 11.3 | 22.5 | 0.00 | 0.00 | 0.00 | 38 | 1017.8 |
| 20260502013056 | 17 | 245 | 12.9 | 19.3 | 0.00 | 0.00 | 0.00 | 37 | 1017.8 |
| 20260502012537 | 17 | 360 | 9.7 | 24.1 | 0.00 | 0.00 | 0.00 | 36 | 1017.7 |
| 20260502012039 | 17 | 360 | 12.9 | 24.1 | 0.00 | 0.00 | 0.00 | 35 | 1017.7 |
| 20260502011609 | 17 | 360 | 16.1 | 24.1 | 0.00 | 0.00 | 0.00 | 35 | 1017.6 |
| 20260502011039 | 18 | 360 | 14.5 | 22.5 | 0.00 | 0.00 | 0.00 | 36 | 1017.7 |
| 20260502010539 | 18 | 272 | 11.3 | 22.5 | 0.00 | 0.00 | 0.00 | 37 | 1017.6 |
| 20260502010051 | 18 | 252 | 12.9 | 22.5 | 0.00 | 0.00 | 0.00 | 36 | 1017.7 |
| 20260502005539 | 18 | 218 | 16.1 | 22.5 | 0.00 | 0.00 | 0.00 | 36 | 1017.6 |
| 20260502005039 | 18 | 259 | 11.3 | 27.4 | 0.00 | 0.00 | 0.00 | 37 | 1017.7 |
| 20260502004600 | 18 | 248 | 11.3 | 27.4 | 0.00 | 0.00 | 0.00 | 37 | 1017.7 |
| 20260502004038 | 18 | 250 | 16.1 | 27.4 | 0.00 | 0.00 | 0.00 | 35 | 1017.7 |
| 20260502003538 | 18 | 275 | 11.3 | 27.4 | 0.00 | 0.00 | 0.00 | 31 | 1017.6 |
| 20260502003050 | 19 | 267 | 17.7 | 29.0 | 0.00 | 0.00 | 0.00 | 30 | 1017.6 |
| 20260502002538 | 19 | 274 | 11.3 | 29.0 | 0.00 | 0.00 | 0.00 | 31 | 1017.7 |
| 20260502002041 | 19 | 253 | 14.5 | 24.1 | 0.00 | 0.00 | 0.00 | 30 | 1017.6 |
| 20260502001552 | 19 | 267 | 12.9 | 24.1 | 0.00 | 0.00 | 0.00 | 31 | 1017.8 |
| 20260502001038 | 19 | 282 | 16.1 | 24.1 | 0.00 | 0.00 | 0.00 | 30 | 1017.7 |
| 20260502000539 | 19 | 306 | 11.3 | 24.1 | 0.00 | 0.00 | 0.00 | 30 | 1017.8 |
| 20260502000111 | 19 | 296 | 9.7 | 27.4 | 0.00 | 0.00 | 0.00 | 31 | 1017.8 |
| 20260501235539 | 19 | 270 | 16.1 | 27.4 | 0.00 | 0.00 | 0.00 | 31 | 1017.8 |
| 20260501235041 | 18 | 296 | 16.1 | 29.0 | 0.00 | 0.00 | 0.00 | 30 | 1017.8 |
| 20260501234550 | 18 | 292 | 14.5 | 29.0 | 0.00 | 0.00 | 0.00 | 30 | 1017.8 |
| 20260501234039 | 18 | 321 | 12.9 | 37.0 | 0.00 | 0.00 | 0.00 | 31 | 1017.8 |
| 20260501233539 | 18 | 273 | 12.9 | 37.0 | 0.00 | 0.00 | 0.00 | 31 | 1017.9 |
| 20260501233047 | 18 | 318 | 19.3 | 37.0 | 0.00 | 0.00 | 0.00 | 30 | 1017.9 |
| 20260501232538 | 18 | 327 | 16.1 | 29.0 | 0.00 | 0.00 | 0.00 | 31 | 1017.9 |
| 20260501232038 | 18 | 295 | 16.1 | 27.4 | 0.00 | 0.00 | 0.00 | 30 | 1017.9 |
| 20260501231602 | 18 | 277 | 16.1 | 27.4 | 0.00 | 0.00 | 0.00 | 30 | 1018.0 |
| 20260501231038 | 18 | 298 | 14.5 | 30.6 | 0.00 | 0.00 | 0.00 | 30 | 1018.0 |
| 20260501230538 | 18 | 275 | 16.1 | 30.6 | 0.00 | 0.00 | 0.00 | 31 | 1018.1 |
| 20260501230054 | 18 | 267 | 17.7 | 30.6 | 0.00 | 0.00 | 0.00 | 30 | 1018.1 |
| 20260501225541 | 18 | 271 | 17.7 | 27.4 | 0.00 | 0.00 | 0.00 | 30 | 1018.2 |
| 20260501225040 | 18 | 286 | 17.7 | 30.6 | 0.00 | 0.00 | 0.00 | 31 | 1018.2 |
| 20260501224600 | 18 | 268 | 16.1 | 37.0 | 0.00 | 0.00 | 0.00 | 30 | 1018.2 |
| 20260501224039 | 18 | 292 | 19.3 | 37.0 | 0.00 | 0.00 | 0.00 | 30 | 1018.2 |
| 20260501223542 | 18 | 293 | 16.1 | 29.0 | 0.00 | 0.00 | 0.00 | 30 | 1018.2 |
| 20260501223051 | 18 | 306 | 17.7 | 29.0 | 0.00 | 0.00 | 0.00 | 31 | 1018.4 |
| 20260501222539 | 18 | 274 | 11.3 | 35.4 | 0.00 | 0.00 | 0.00 | 30 | 1018.4 |
| 20260501222040 | 18 | 286 | 19.3 | 35.4 | 0.00 | 0.00 | 0.00 | 30 | 1018.5 |
| 20260501221613 | 18 | 344 | 20.9 | 35.4 | 0.00 | 0.00 | 0.00 | 30 | 1018.5 |
| 20260501221040 | 18 | 275 | 12.9 | 32.2 | 0.00 | 0.00 | 0.00 | 31 | 1018.7 |
| 20260501220539 | 18 | 325 | 20.9 | 32.2 | 0.00 | 0.00 | 0.00 | 29 | 1018.7 |
| 20260501220052 | 18 | 306 | 16.1 | 29.0 | 0.00 | 0.00 | 0.00 | 31 | 1018.7 |
| 20260501215539 | 18 | 360 | 19.3 | 29.0 | 0.00 | 0.00 | 0.00 | 30 | 1018.8 |
| 20260501215039 | 18 | 360 | 17.7 | 33.8 | 0.00 | 0.00 | 0.00 | 31 | 1018.8 |
| 20260501214554 | 18 | 360 | 16.1 | 33.8 | 0.00 | 0.00 | 0.00 | 31 | 1018.9 |
| 20260501214041 | 18 | 360 | 20.9 | 32.2 | 0.00 | 0.00 | 0.00 | 32 | 1019.0 |
| 20260501213541 | 18 | 360 | 20.9 | 32.2 | 0.00 | 0.00 | 0.00 | 33 | 1019.0 |
| 20260501213053 | 18 | 360 | 22.5 | 32.2 | 0.00 | 0.00 | 0.00 | 32 | 1019.1 |
| 20260501212540 | 18 | 360 | 17.7 | 29.0 | 0.00 | 0.00 | 0.00 | 32 | 1019.1 |
| 20260501212039 | 18 | 360 | 16.1 | 37.0 | 0.00 | 0.00 | 0.00 | 33 | 1019.2 |
| 20260501211553 | 18 | 360 | 16.1 | 37.0 | 0.00 | 0.00 | 0.00 | 33 | 1019.2 |
| 20260501211040 | 18 | 360 | 19.3 | 37.0 | 0.00 | 0.00 | 0.00 | 33 | 1019.2 |
| 20260501210539 | 18 | 232 | 20.9 | 30.6 | 0.00 | 0.00 | 0.00 | 31 | 1019.1 |
| 20260501210050 | 18 | 278 | 20.9 | 30.6 | 0.00 | 0.00 | 0.00 | 33 | 1019.2 |
| 20260501205539 | 18 | 307 | 17.7 | 33.8 | 0.00 | 0.00 | 0.00 | 31 | 1019.1 |
| 20260501205038 | 17 | 272 | 19.3 | 35.4 | 0.00 | 0.00 | 0.00 | 33 | 1019.2 |
| 20260501204553 | 17 | 271 | 16.1 | 35.4 | 0.00 | 0.00 | 0.00 | 33 | 1019.2 |
| 20260501204040 | 17 | 311 | 20.9 | 35.4 | 0.00 | 0.00 | 0.00 | 32 | 1019.3 |
| 20260501203542 | 18 | 271 | 20.9 | 32.2 | 0.00 | 0.00 | 0.00 | 33 | 1019.3 |
| 20260501203053 | 18 | 271 | 17.7 | 30.6 | 0.00 | 0.00 | 0.00 | 34 | 1019.3 |
| 20260501202539 | 18 | 267 | 19.3 | 30.6 | 0.00 | 0.00 | 0.00 | 33 | 1019.3 |
| 20260501202040 | 18 | 262 | 16.1 | 32.2 | 0.00 | 0.00 | 0.00 | 33 | 1019.3 |
| 20260501201555 | 17 | 224 | 14.5 | 32.2 | 0.00 | 0.00 | 0.00 | 35 | 1019.3 |
| 20260501201041 | 17 | 247 | 19.3 | 30.6 | 0.00 | 0.00 | 0.00 | 33 | 1019.3 |
| 20260501200541 | 17 | 246 | 19.3 | 29.0 | 0.00 | 0.00 | 0.00 | 34 | 1019.3 |
| 20260501200052 | 17 | 260 | 14.5 | 29.0 | 0.00 | 0.00 | 0.00 | 34 | 1019.3 |
| 20260501195539 | 18 | 237 | 12.9 | 22.5 | 0.00 | 0.00 | 0.00 | 34 | 1019.3 |
| 20260501195041 | 17 | 232 | 12.9 | 27.4 | 0.00 | 0.00 | 0.00 | 33 | 1019.3 |
| 20260501194551 | 17 | 241 | 11.3 | 27.4 | 0.00 | 0.00 | 0.00 | 34 | 1019.4 |
| 20260501194039 | 17 | 197 | 14.5 | 27.4 | 0.00 | 0.00 | 0.00 | 34 | 1019.5 |
| 20260501193539 | 17 | 198 | 11.3 | 24.1 | 0.00 | 0.00 | 0.00 | 33 | 1019.4 |
| 20260501193054 | 17 | 242 | 8.0 | 24.1 | 0.00 | 0.00 | 0.00 | 33 | 1019.5 |
| 20260501192538 | 17 | 255 | 16.1 | 24.1 | 0.00 | 0.00 | 0.00 | 33 | 1019.6 |
| 20260501192038 | 17 | 276 | 12.9 | 22.5 | 0.00 | 0.00 | 0.00 | 33 | 1019.5 |
| 20260501191553 | 17 | 234 | 11.3 | 25.7 | 0.00 | 0.00 | 0.00 | 32 | 1019.6 |
| 20260501191041 | 17 | 338 | 12.9 | 25.7 | 0.00 | 0.00 | 0.00 | 32 | 1019.6 |
| 20260501190538 | 17 | 276 | 16.1 | 25.7 | 0.00 | 0.00 | 0.00 | 33 | 1019.6 |
| 20260501190106 | 17 | 290 | 12.9 | 24.1 | 0.00 | 0.00 | 0.00 | 34 | 1019.7 |
| 20260501185538 | 17 | 235 | 12.9 | 20.9 | 0.00 | 0.00 | 0.00 | 33 | 1019.8 |
| 20260501185041 | 17 | 240 | 12.9 | 22.5 | 0.00 | 0.00 | 0.00 | 34 | 1019.8 |
| 20260501184547 | 17 | 277 | 11.3 | 22.5 | 0.00 | 0.00 | 0.00 | 31 | 1019.9 |
| 20260501184039 | 17 | 283 | 11.3 | 20.9 | 0.00 | 0.00 | 0.00 | 30 | 1019.9 |
| 20260501183540 | 17 | 204 | 8.0 | 27.4 | 0.00 | 0.00 | 0.00 | 32 | 1020.0 |
| 20260501183053 | 17 | 269 | 9.7 | 27.4 | 0.00 | 0.00 | 0.00 | 31 | 1020.0 |
| 20260501182538 | 17 | 360 | 17.7 | 27.4 | 0.00 | 0.00 | 0.00 | 30 | 1020.1 |
| 20260501182038 | 17 | 360 | 12.9 | 22.5 | 0.00 | 0.00 | 0.00 | 33 | 1020.0 |
| 20260501181552 | 17 | 238 | 12.9 | 19.3 | 0.00 | 0.00 | 0.00 | 31 | 1020.0 |
| 20260501181038 | 17 | 221 | 6.4 | 14.5 | 0.00 | 0.00 | 0.00 | 33 | 1020.1 |